Terminal Aerodrome Forecast
Issued by NWS

Home | Current Version | Previous Version | Text Only | Print | Product List | Glossary On
Versions: 1 2 3 4 5 6 7 8 9 10 11 12
339
FTUS42 TJSJ 090536
TAFNCM
TAF
TNCM 090536Z 0906/1006 11008KT P6SM FEW020
     FM091300 11011KT P6SM SCT022=

USA.gov is the U.S. government's official web portal to all federal, state and local government web resources and services.